Location: Prairie State College
(41.5244°N, 87.6382°W)
Time: 20:40:16
(UTC-05:00)

ARGOS Delta rocket - Visible Passes

Search period start: 21 June 2018 00:00
Search period end: 01 July 2018 00:00
Orbit: 635 x 838 km, 96.5° (Epoch: 21 June)

Date Brightness Start Highest point End Pass type
(mag) Time Alt. Az. Time Alt. Az. Time Alt. Az.
22 Jun 6.9 04:38:55 10° ESE 04:43:06 23° ENE 04:47:12 10° NNE visible
25 Jun 7.4 04:05:12 10° E 04:06:57 12° ENE 04:08:41 10° NE visible
27 Jun 7.1 04:12:36 10° E 04:15:18 14° ENE 04:17:57 10° NNE visible
29 Jun 7.0 04:20:20 10° ESE 04:23:40 17° ENE 04:26:54 10° NNE visible
